Location: Lake Arresoe
(56.0000°N, 12.5000°E)
Time: 05:36:17
(UTC+02:00)

Cosmos 1674 - Pass Details

Date: 18 August 2020
Orbit: 495 x 517 km, 82.5° (Epoch: 21 September)

Event Time Altitude Azimuth Distance (km) Brightness Sun altitude
Rises 01:50:19 0° 343° (NNW) 2,605 7.4 -20.6°
Reaches altitude 10° 01:52:31 10° 336° (NNW) 1,719 6.1 -20.5°
Maximum altitude 01:56:03 41° 266° (W) 745 3.3 -20.4°
Enters shadow 01:56:06 41° 264° (W) 745 3.3 -20.4°
